Preview of NWS' New Version of Forecast
This preview is not operational and should not be used for support decisions.

Regional Weather Roundup (RWR)

Issued by National Weather Service (NWS)

                            
000
ASUS45 KBOI 200810
RWRID 

IDAHO REGIONAL WEATHER ROUNDUP
NATIONAL WEATHER SERVICE BOISE ID
100 AM MST WED FEB 20 2019

NOTE: "FAIR" INDICATES FEW OR NO CLOUDS BELOW 12000 FEET
WITH NO SIGNIFICANT WEATHER AND/OR OBSTRUCTIONS TO VISIBILITY

IDZ012-014-200900-
SOUTHWEST IDAHO

  
CITY           SKY/WX    TMP DP  RH WIND       PRES   REMARKS
BOISE          LGT SNOW  28  26  92 E6        29.80F FOG     WCI  22  
CALDWELL       MIX PCPN  30  28  92 E5        29.82F WCI  25          
MOUNTAIN HOME  LGT SNOW  25  25 100 SE3       29.81F FOG              
$$

IDZ016-017-200900-
SOUTHCENTRAL IDAHO

  
CITY           SKY/WX    TMP DP  RH WIND       PRES   REMARKS
BURLEY         LGT SNOW  24  20  84 SW12      29.75F FOG     WCI  13  
JEROME         LGT SNOW  24  22  91 SW12      29.77F FOG     WCI  13  
TWIN FALLS     LGT SNOW  24  21  88 SW15      29.76F FOG     WCI  11  
$$

IDZ019>023-200900-
SOUTHEAST IDAHO

  
CITY           SKY/WX    TMP DP  RH WIND       PRES   REMARKS
IDAHO FALLS    LGT SNOW  17  14  88 SW6       29.73F VSB 3/4 WCI   9  
POCATELLO      LGT SNOW  20  17  88 S10       29.74F FOG     WCI   9  
REXBURG        LGT SNOW  15  11  83 S3        29.72F FOG              
$$

IDZ006-010-011-018-031-032-200900-
CENTRAL IDAHO MOUNTAINS

  
CITY           SKY/WX    TMP DP  RH WIND       PRES   REMARKS
MCCALL         LGT SNOW  18  14  84 CALM      29.66F FOG              
HAILEY         CLOUDY    14  10  85 NW5       29.71F WCI   6          
STANLEY          N/A     12   6  77 CALM      29.63F                  
SALMON         LGT SNOW  19  16  88 N3        29.71F FOG              
CHALLIS        FLURRIES  17  12  80 CALM      29.67F                  
$$

IDZ002-004-006-007-026-200900-
NORTHERN IDAHO

  
CITY           SKY/WX    TMP DP  RH WIND       PRES   REMARKS
LEWISTON       LGT SNOW  27  24  89 CALM      29.80F FOG              
LOWELL           N/A     28  27  96 CALM      29.83                   
COEUR D'ALENE  FLURRIES  21  19  92 NE7       29.76F WCI  12          
MULLAN PASS    LGT SNOW  13   9  84 VRB3      29.55F FOG              
$$